Regional Weather Roundup
Issued by NWS Albany, NY

Home | Current Version | Previous Version | Text Only | Print | Product List | Glossary On
Versions: 1 2 3 4 5 6 7 8 9 10 11 12 13 14 15 16 17 18 19 20 21 22 23 24 25 26 27
000
ASUS41 KALY 301610
RWRALY

NEW YORK STATE HOURLY WEATHER ROUNDUP
NATIONAL WEATHER SERVICE ALBANY NY
1200 PM EDT SUN APR 30 2017

NOTE: "FAIR" INDICATES FEW OR NO CLOUDS BELOW 12,000 FEET WITH NO
SIGNIFICANT WEATHER AND/OR NO OBSTRUCTIONS TO VISIBILITY.

NYZ032-033-038>043-046>054-057>066-NYZ062>081-082-084-301700-
EAST


CITY           SKY/WX    TMP DP  RH WIND       PRES   REMARKS
ALBANY         CLOUDY    48  29  47 N7        30.31R
GLENS FALLS    CLOUDY    46  30  53 NE13      30.31F
POUGHKEEPSIE   CLOUDY    55  38  52 N8        30.27R
NEWBURGH       PTSUNNY   55  41  58 NE7       30.27R
MONTGOMERY     CLOUDY    56  37  49 N10       30.25R
WHITE PLAINS   PTSUNNY   59  39  47 SE9       30.23S
ISLIP          CLOUDY    56  41  57 E22G30    30.26R
NEW YORK CITY  PTSUNNY   65  42  43 NE9       30.23S
CENTRAL PARK   CLOUDY    64  42  44 VRB3      30.25S
$$

NYZ005>009-017-018-044>046-055-056-301700-
CENTRAL


CITY           SKY/WX    TMP DP  RH WIND       PRES   REMARKS
FULTON         LGT RAIN  40  37  89 E7        30.19F
SYRACUSE       CLOUDY    48  38  68 E5        30.24R
ROME           CLOUDY    49  36  61 S12       30.27R
ELMIRA         CLOUDY    53  40  61 E8        30.17F
BINGHAMTON     CLOUDY    48  41  76 E7        30.20R
MONTICELLO     CLOUDY    52  36  54 E13       30.24F
$$

NYZ026>034-041>043-087-301700-
NORTH


CITY           SKY/WX    TMP DP  RH WIND       PRES   REMARKS
WATERTOWN      LGT RAIN  40  36  86 E10       30.25F FOG     WCI  33
FORT DRUM      NOT AVBL
OGDENSBURG     DRIZZLE   40  33  76 E10       30.31S WCI  34
MASSENA        CLOUDY    41  31  67 E10       30.33F
SARANAC LAKE   LGT RAIN  38  31  76 E8        30.21F WCI  32
PLATTSBURGH    LGT RAIN  41  28  60 NE8       30.34F
$$

NYZ001>004-010>016-019>021-085-301700-
WEST


CITY           SKY/WX    TMP DP  RH WIND       PRES   REMARKS
NIAGARA FALLS  CLOUDY    44  38  79 E16       30.11S
BUFFALO        CLOUDY    47  37  68 E22       30.09F
DUNKIRK        MOSUNNY   52  43  71 N14       30.02F
JAMESTOWN      SUNNY     70  57  64 S12       30.03F
WELLSVILLE     MOSUNNY   63  48  58 SE10G16   30.10F
ROCHESTER      CLOUDY    42  38  85 E10       30.18F
PENN YAN       CLOUDY    46  34  62 E6        30.19F
$$

             KEY
       WCI = WIND CHILL INDEX
       VSB = VISIBILITY
       HX  = HEAT INDEX
$$




USA.gov is the U.S. government's official web portal to all federal, state and local government web resources and services.